TimeEST,TemperatureF,Dew PointF,Humidity,Sea Level PressureIn,VisibilityMPH,Wind Direction,Wind SpeedMPH,Gust SpeedMPH,PrecipitationIn,Events,Conditions,WindDirDegrees,DateUTC
12:51 AM,52.0,46.0,80,30.22,10.0,South,3.5,-,N/A,,Clear,170,2012-12-04 05:51:00
1:51 AM,52.0,45.0,77,30.22,10.0,South,4.6,-,N/A,,Clear,190,2012-12-04 06:51:00
2:51 AM,52.0,45.0,77,30.22,10.0,Calm,Calm,-,N/A,,Clear,0,2012-12-04 07:51:00
3:51 AM,52.0,45.0,77,30.22,10.0,SSW,4.6,-,N/A,,Clear,200,2012-12-04 08:51:00
4:51 AM,51.1,45.0,80,30.23,10.0,Calm,Calm,-,N/A,,Clear,0,2012-12-04 09:51:00
5:51 AM,50.0,44.1,80,30.22,10.0,South,4.6,-,N/A,,Clear,190,2012-12-04 10:51:00
6:51 AM,53.1,45.0,74,30.24,10.0,South,5.8,-,N/A,,Clear,190,2012-12-04 11:51:00
7:51 AM,54.0,45.0,72,30.23,10.0,South,5.8,-,N/A,,Clear,190,2012-12-04 12:51:00
8:51 AM,57.0,46.0,67,30.24,10.0,SSW,6.9,-,N/A,,Clear,210,2012-12-04 13:51:00
9:51 AM,60.1,46.9,62,30.23,10.0,SW,9.2,-,N/A,,Clear,230,2012-12-04 14:51:00
10:51 AM,62.1,46.9,58,30.22,10.0,WSW,11.5,-,N/A,,Clear,240,2012-12-04 15:51:00
11:51 AM,63.0,46.9,56,30.19,10.0,SW,16.1,20.7,N/A,,Clear,220,2012-12-04 16:51:00
12:51 PM,64.0,46.9,54,30.16,10.0,WSW,5.8,-,N/A,,Partly Cloudy,250,2012-12-04 17:51:00
1:51 PM,63.0,46.9,56,30.14,10.0,SW,12.7,16.1,N/A,,Overcast,230,2012-12-04 18:51:00
2:51 PM,63.0,46.0,54,30.13,10.0,WSW,11.5,-,N/A,,Overcast,240,2012-12-04 19:51:00
3:51 PM,63.0,46.0,54,30.12,10.0,SW,9.2,19.6,N/A,,Scattered Clouds,220,2012-12-04 20:51:00
4:51 PM,62.1,46.9,58,30.13,10.0,SW,10.4,-,N/A,,Scattered Clouds,220,2012-12-04 21:51:00
5:51 PM,62.1,46.0,56,30.13,10.0,SSW,9.2,-,N/A,,Overcast,210,2012-12-04 22:51:00
6:51 PM,61.0,46.9,60,30.13,10.0,SW,8.1,-,N/A,,Overcast,220,2012-12-04 23:51:00
7:51 PM,60.1,46.9,62,30.13,10.0,SW,5.8,-,N/A,,Overcast,220,2012-12-05 00:51:00
8:51 PM,60.1,46.0,60,30.12,10.0,SW,9.2,-,0.00,,Overcast,230,2012-12-05 01:51:00
9:51 PM,60.1,46.9,62,30.11,10.0,SSW,6.9,17.3,N/A,,Overcast,210,2012-12-05 02:51:00
10:51 PM,60.8,46.4,59,30.14,10.0,SW,8.1,-,N/A,,Overcast,220,2012-12-05 03:51:00
11:51 PM,60.1,46.0,60,30.09,10.0,WSW,8.1,-,N/A,,Overcast,250,2012-12-05 04:51:00